Rugby, ND

11:25 PM CST on December 12, 2019 (GMT -0600)
Rugby Municipal

Weather History for KRUG - October, 2019

Change the Weather History Date:

Wednesday, October 30, 2019

  Actual Average Record
Temperature  
Mean Temperature 18 °F -  
Max Temperature 26 °F 47 °F 80 °F (1950)
Min Temperature 10 °F 27 °F -6 °F (1991)
Degree Days  
Heating Degree Days 47    
Moisture  
Dew Point 14 °F    
Average Humidity 85    
Maximum Humidity 100    
Minimum Humidity 69    
Precipitation  
Precipitation 0.00 in - - ()
Sea Level Pressure  
Sea Level Pressure 30.19 in    
Wind  
Wind Speed 12 mph (West)    
Max Wind Speed 17 mph    
Max Gust Speed 22 mph    
Visibility 10 miles    
Events Snow    
Averages and records for this station are not official NWS values.
T = Trace of Precipitation, MM = Missing Value Source: NWS Daily Summary

Daily Weather History Graph

Daily Weather History Graph

Search for Another Location

Airport or City:

Astronomy

Oct. 30, 2019 Rise Set
Actual Time 8:22 AM CDT 6:24 PM CDT
Civil Twilight 7:49 AM CDT 6:56 PM CDT
Nautical Twilight 7:13 AM CDT 7:33 PM CDT
Astronomical Twilight 6:36 AM CDT 8:09 PM CDT
Moon 11:18 AM CDT (10/30) 8:21 PM CDT (10/30)
Length of Visible Light 11h 06m
Length of Day
10h 01m
Waxing Crescent, 9% of the Moon is Illuminated
Oct 30
Waxing Crescent
Nov 4
First Quarter
Nov 12
Full
Nov 19
Last Quarter
Nov 26
New

Hourly Weather History & Observations

Time (CDT) Temp. Windchill Dew Point Humidity Pressure Visibility Wind Dir Wind Speed Gust Speed Precip Events Conditions
12:15 AM 17.6 °F 3.7 °F 14.0 °F 86% 30.20 in 10.0 mi West 13.8 mph 20.7 mph N/A   Overcast
12:35 AM 17.6 °F 3.2 °F 12.2 °F 79% 30.20 in 10.0 mi West 15.0 mph - N/A   Overcast
12:55 AM 15.8 °F 2.1 °F 12.2 °F 86% 30.20 in 10.0 mi West 12.7 mph - N/A   Mostly Cloudy
1:15 AM 17.6 °F 3.7 °F 14.0 °F 86% 30.20 in 7.0 mi West 13.8 mph - N/A Snow Light Snow
1:35 AM 15.8 °F 1.4 °F 14.0 °F 93% 30.20 in 8.0 mi West 13.8 mph 19.6 mph N/A   Mostly Cloudy
1:55 AM 15.8 °F 2.7 °F 14.0 °F 93% 30.20 in 10.0 mi West 11.5 mph 17.3 mph N/A   Mostly Cloudy
2:15 AM 15.8 °F 2.1 °F 14.0 °F 93% 30.20 in 10.0 mi West 12.7 mph - N/A   Mostly Cloudy
2:35 AM 17.6 °F 3.7 °F 15.8 °F 93% 30.19 in 6.0 mi West 13.8 mph - N/A Snow Light Snow
2:55 AM 17.6 °F 4.3 °F 15.8 °F 93% 30.19 in 5.0 mi West 12.7 mph - N/A Snow Light Snow
3:15 AM 17.6 °F 4.3 °F 15.8 °F 93% 30.20 in 5.0 mi West 12.7 mph - N/A Snow Light Snow
3:35 AM 17.6 °F 4.3 °F 15.8 °F 93% 30.20 in 9.0 mi West 12.7 mph - N/A   Overcast
3:55 AM 17.6 °F 4.3 °F 15.8 °F 93% 30.19 in 9.0 mi West 12.7 mph - N/A   Overcast
4:15 AM 17.6 °F 5.0 °F 15.8 °F 93% 30.20 in 7.0 mi West 11.5 mph - N/A Snow Light Snow
4:35 AM 17.6 °F 4.3 °F 15.8 °F 93% 30.20 in 10.0 mi West 12.7 mph - N/A   Overcast
4:55 AM 15.8 °F 2.1 °F 14.0 °F 93% 30.20 in 10.0 mi West 12.7 mph - N/A   Scattered Clouds
5:15 AM 14.0 °F 2.0 °F 14.0 °F 100% 30.20 in 10.0 mi West 9.2 mph - N/A   Clear
5:35 AM 14.0 °F 1.2 °F 12.2 °F 93% 30.20 in 10.0 mi West 10.4 mph - N/A   Unknown
5:55 AM 14.0 °F 1.2 °F 12.2 °F 93% 30.21 in 10.0 mi West 10.4 mph - N/A   Clear
6:15 AM 12.2 °F -0.2 °F 12.2 °F 100% 30.20 in 10.0 mi West 9.2 mph - N/A   Clear
6:35 AM 12.2 °F -0.2 °F 10.4 °F 92% 30.21 in 10.0 mi West 9.2 mph - N/A   Clear
6:55 AM 12.2 °F -0.2 °F 10.4 °F 92% 30.21 in 10.0 mi West 9.2 mph - N/A   Clear
7:15 AM 10.4 °F -1.5 °F 8.6 °F 92% 30.21 in 10.0 mi WSW 8.1 mph - N/A   Clear
7:35 AM 10.4 °F -1.5 °F 8.6 °F 92% 30.21 in 10.0 mi WSW 8.1 mph - N/A   Clear
7:55 AM 10.4 °F -2.4 °F 8.6 °F 92% 30.21 in 10.0 mi WSW 9.2 mph - N/A   Unknown
8:15 AM 12.2 °F -0.2 °F 10.4 °F 92% 30.21 in 10.0 mi West 9.2 mph - N/A   Clear
8:35 AM 12.2 °F -0.2 °F 10.4 °F 92% 30.21 in 10.0 mi West 9.2 mph - N/A   Clear
8:55 AM 12.2 °F -0.2 °F 10.4 °F 92% 30.21 in 10.0 mi West 9.2 mph - N/A   Clear
9:15 AM 14.0 °F 1.2 °F 12.2 °F 93% 30.22 in 10.0 mi West 10.4 mph - N/A   Clear
9:35 AM 15.8 °F 3.4 °F 14.0 °F 93% 30.22 in 10.0 mi West 10.4 mph - N/A   Clear
9:55 AM 17.6 °F 5.0 °F 15.8 °F 93% 30.23 in 10.0 mi West 11.5 mph - N/A   Clear
10:15 AM 19.4 °F 6.6 °F 15.8 °F 86% 30.23 in 10.0 mi WNW 12.7 mph - N/A   Clear
10:35 AM 19.4 °F 6.0 °F 17.6 °F 93% 30.23 in 10.0 mi WNW 13.8 mph - N/A   Partly Cloudy
10:55 AM 21.2 °F 8.9 °F 17.6 °F 86% 30.23 in 10.0 mi WNW 12.7 mph - N/A   Partly Cloudy
11:15 AM 21.2 °F 8.9 °F 17.6 °F 86% 30.23 in 8.0 mi West 12.7 mph - N/A   Scattered Clouds
11:35 AM 21.2 °F 8.3 °F 17.6 °F 86% 30.23 in 8.0 mi West 13.8 mph - N/A   Mostly Cloudy
11:55 AM 21.2 °F 8.3 °F 15.8 °F 80% 30.23 in 9.0 mi WNW 13.8 mph - N/A   Partly Cloudy
12:15 PM 23.0 °F 10.6 °F 15.8 °F 74% 30.23 in 10.0 mi West 13.8 mph - N/A   Partly Cloudy
12:35 PM 23.0 °F 10.6 °F 17.6 °F 80% 30.22 in 10.0 mi West 13.8 mph - N/A   Mostly Cloudy
12:55 PM 23.0 °F 9.6 °F 17.6 °F 80% 30.23 in 10.0 mi West 16.1 mph - N/A   Mostly Cloudy
1:15 PM 24.8 °F 11.9 °F 17.6 °F 74% 30.22 in 10.0 mi West 16.1 mph - N/A   Mostly Cloudy
1:35 PM 23.0 °F 9.6 °F 17.6 °F 80% 30.22 in 10.0 mi West 16.1 mph - N/A   Mostly Cloudy
1:55 PM 24.8 °F 12.9 °F 17.6 °F 74% 30.21 in 10.0 mi WNW 13.8 mph 21.9 mph N/A   Mostly Cloudy
2:15 PM 24.8 °F 14.0 °F 17.6 °F 74% 30.20 in 10.0 mi WNW 11.5 mph 18.4 mph N/A   Mostly Cloudy
2:35 PM 24.8 °F 12.9 °F 17.6 °F 74% 30.19 in 10.0 mi West 13.8 mph - N/A   Scattered Clouds
2:55 PM 26.6 °F 13.8 °F 17.6 °F 69% 30.18 in 10.0 mi WNW 17.3 mph - N/A   Partly Cloudy
3:35 PM 24.8 °F 13.4 °F 17.6 °F 74% 30.18 in 10.0 mi NW 12.7 mph 19.6 mph N/A   Mostly Cloudy
3:55 PM 24.8 °F 13.4 °F 15.8 °F 69% 30.18 in 10.0 mi West 12.7 mph - N/A   Overcast
4:15 PM 24.8 °F 14.6 °F 15.8 °F 69% 30.18 in 10.0 mi WNW 10.4 mph - N/A   Overcast
4:55 PM 24.8 °F 15.3 °F 15.8 °F 69% 30.18 in 10.0 mi NW 9.2 mph - N/A   Mostly Cloudy
5:15 PM 24.8 °F 15.3 °F 15.8 °F 69% 30.18 in 10.0 mi NW 9.2 mph - N/A   Mostly Cloudy
5:35 PM 24.8 °F 16.1 °F 15.8 °F 69% 30.17 in 10.0 mi NW 8.1 mph - N/A   Mostly Cloudy
5:55 PM 24.8 °F 14.6 °F 15.8 °F 69% 30.16 in 10.0 mi WNW 10.4 mph - N/A   Mostly Cloudy
6:15 PM 23.0 °F 14.7 °F 15.8 °F 74% 30.17 in 10.0 mi WNW 6.9 mph - N/A   Overcast
6:35 PM 23.0 °F 14.7 °F 15.8 °F 74% 30.17 in 10.0 mi WNW 6.9 mph - N/A   Overcast
6:55 PM 19.4 °F 11.5 °F 14.0 °F 80% 30.16 in 10.0 mi West 5.8 mph - N/A   Mostly Cloudy
7:15 PM 17.6 °F 9.3 °F 14.0 °F 86% 30.17 in 10.0 mi West 5.8 mph - N/A   Partly Cloudy
7:35 PM 17.6 °F 8.2 °F 14.0 °F 86% 30.17 in 10.0 mi West 6.9 mph - N/A   Clear
7:55 PM 17.6 °F 9.3 °F 14.0 °F 86% 30.16 in 10.0 mi WSW 5.8 mph - N/A   Clear
8:15 PM 15.8 °F 6.1 °F 14.0 °F 93% 30.16 in 10.0 mi WSW 6.9 mph - N/A   Clear
8:35 PM 17.6 °F 9.3 °F 14.0 °F 86% 30.16 in 10.0 mi WSW 5.8 mph - N/A   Clear
8:55 PM 17.6 °F 10.7 °F 14.0 °F 86% 30.16 in 10.0 mi WSW 4.6 mph - N/A   Clear
9:15 PM 15.8 °F 6.1 °F 12.2 °F 86% 30.15 in 10.0 mi WSW 6.9 mph - N/A   Unknown
9:35 PM 15.8 °F 10.2 °F 12.2 °F 86% 30.15 in 10.0 mi WSW 3.5 mph - N/A   Unknown
9:55 PM 15.8 °F 7.2 °F 12.2 °F 86% 30.14 in 10.0 mi SW 5.8 mph - N/A   Clear
10:15 PM 14.0 °F 3.9 °F 10.4 °F 86% 30.14 in 10.0 mi SW 6.9 mph - N/A   Clear
10:35 PM 14.0 °F 3.9 °F 10.4 °F 86% 30.14 in 10.0 mi SSW 6.9 mph - N/A   Clear
10:55 PM 14.0 °F - 10.4 °F 86% 30.13 in 10.0 mi North - - N/A   Clear
11:15 PM 14.0 °F 2.0 °F 10.4 °F 86% 30.13 in 10.0 mi SW 9.2 mph - N/A   Clear
11:35 PM 15.8 °F 6.1 °F 10.4 °F 79% 30.12 in 10.0 mi SSW 6.9 mph - N/A   Clear
11:55 PM 15.8 °F 8.6 °F 10.4 °F 79% 30.11 in 10.0 mi North 4.6 mph - N/A   Clear